Total_Precipitation_Accumulation
0.00 0.03 0.05 0.06 0.06 0.04 0.01 0.01 0.02 0.02 0.03 0.01 0.00 0.00 0.00 0.00 0.00 0.00 0.00 0.00 0.00 0.00 0.01 0.01 0.01 0.01 0.02 0.02 0.03 0.03 0.04 0.04 0.05 0.05 0.06 0.06 0.06 0.06 0.06 0.07 0.08 0.12 0.15 0.15
0.00 0.01 0.02 0.04 0.07 0.04 0.01 0.00 0.00 0.00 0.00 0.00 0.00 0.01 0.02 0.02 0.01 0.02 0.02 0.03 0.04 0.04 0.05 0.04 0.04 0.04 0.04 0.04 0.04 0.05 0.05 0.05 0.04 0.05 0.05 0.06 0.06 0.06 0.06 0.08 0.12 0.17 0.20 0.20
0.00 0.01 0.01 0.06 0.05 0.02 0.01 0.00 0.00 0.01 0.02 0.02 0.03 0.05 0.08 0.11 0.12 0.13 0.12 0.10 0.07 0.05 0.03 0.02 0.01 0.01 0.01 0.01 0.01 0.02 0.03 0.03 0.04 0.05 0.05 0.06 0.06 0.07 0.09 0.12 0.16 0.21 0.25 0.27
0.00 0.00 0.04 0.05 0.03 0.02 0.01 0.01 0.01 0.03 0.06 0.09 0.12 0.17 0.23 0.27 0.21 0.11 0.06 0.03 0.01 0.00 0.00 0.00 0.00 0.00 0.01 0.01 0.01 0.02 0.02 0.03 0.04 0.06 0.07 0.08 0.11 0.13 0.17 0.21 0.23 0.27 0.30 0.33
0.01 0.01 0.03 0.02 0.04 0.05 0.04 0.03 0.05 0.11 0.15 0.18 0.18 0.13 0.09 0.06 0.03 0.01 0.01 0.00 0.00 0.00 0.00 0.00 0.01 0.01 0.01 0.01 0.02 0.02 0.04 0.07 0.09 0.11 0.13 0.16 0.20 0.24 0.29 0.31 0.31 0.32 0.34 0.39
0.03 0.03 0.04 0.05 0.08 0.10 0.10 0.14 0.14 0.13 0.10 0.05 0.02 0.01 0.01 0.00 0.00 0.00 0.00 0.00 0.00 0.00 0.00 0.01 0.01 0.02 0.02 0.02 0.03 0.04 0.05 0.08 0.11 0.17 0.23 0.26 0.30 0.35 0.38 0.41 0.40 0.39 0.37 0.42
0.05 0.05 0.03 0.07 0.06 0.05 0.09 0.12 0.06 0.05 0.04 0.05 0.05 0.04 0.02 0.00 0.00 0.00 0.00 0.00 0.00 0.00 0.00 0.01 0.02 0.03 0.04 0.06 0.06 0.06 0.07 0.09 0.12 0.18 0.28 0.31 0.36 0.41 0.46 0.48 0.49 0.50 0.47 0.47
0.07 0.10 0.07 0.09 0.06 0.06 0.08 0.07 0.04 0.03 0.03 0.03 0.02 0.01 0.00 0.00 0.00 0.00 0.00 0.00 0.00 0.00 0.00 0.01 0.03 0.06 0.08 0.10 0.09 0.10 0.12 0.14 0.15 0.22 0.30 0.32 0.42 0.47 0.52 0.57 0.60 0.60 0.62 0.60
0.04 0.07 0.06 0.07 0.08 0.07 0.08 0.06 0.03 0.02 0.01 0.01 0.01 0.00 0.00 0.00 0.00 0.00 0.00 0.00 0.00 0.00 0.01 0.02 0.04 0.08 0.12 0.13 0.13 0.15 0.17 0.17 0.21 0.25 0.37 0.52 0.57 0.54 0.58 0.64 0.63 0.63 0.68 0.71
0.03 0.05 0.05 0.07 0.09 0.06 0.03 0.01 0.01 0.01 0.00 0.00 0.00 0.00 0.00 0.00 0.00 0.00 0.00 0.00 0.00 0.01 0.02 0.04 0.06 0.08 0.12 0.15 0.19 0.22 0.22 0.21 0.24 0.30 0.43 0.67 0.81 0.74 0.68 0.68 0.68 0.69 0.67 0.69
0.04 0.04 0.05 0.04 0.03 0.01 0.01 0.00 0.00 0.00 0.00 0.00 0.00 0.00 0.00 0.00 0.00 0.00 0.00 0.01 0.02 0.03 0.05 0.06 0.07 0.09 0.13 0.18 0.25 0.28 0.27 0.24 0.25 0.32 0.46 0.68 0.86 0.85 0.72 0.70 0.67 0.66 0.65 0.66
0.04 0.03 0.02 0.03 0.03 0.01 0.01 0.00 0.00 0.00 0.00 0.00 0.00 0.00 0.00 0.00 0.00 0.01 0.02 0.03 0.05 0.07 0.08 0.10 0.12 0.15 0.17 0.22 0.30 0.36 0.34 0.30 0.31 0.35 0.46 0.67 0.89 0.97 0.76 0.59 0.56 0.54 0.48 0.47
0.02 0.01 0.02 0.02 0.02 0.01 0.00 0.00 0.00 0.00 0.00 0.00 0.00 0.00 0.00 0.01 0.01 0.02 0.04 0.08 0.11 0.14 0.17 0.20 0.22 0.21 0.21 0.27 0.35 0.40 0.41 0.37 0.35 0.37 0.42 0.55 0.79 1.04 1.08 0.82 0.60 0.51 0.38 0.28
0.02 0.02 0.02 0.01 0.00 0.00 0.00 0.00 0.00 0.00 0.00 0.00 0.00 0.00 0.01 0.01 0.02 0.05 0.10 0.16 0.22 0.26 0.27 0.28 0.27 0.24 0.26 0.33 0.37 0.39 0.39 0.36 0.34 0.34 0.36 0.45 0.67 0.95 1.14 1.12 0.96 0.70 0.41 0.23
0.01 0.01 0.01 0.00 0.00 0.00 0.00 0.00 0.00 0.00 0.00 0.01 0.01 0.01 0.01 0.03 0.06 0.11 0.17 0.28 0.37 0.38 0.34 0.32 0.30 0.28 0.29 0.35 0.37 0.36 0.36 0.32 0.29 0.29 0.31 0.36 0.54 0.80 1.01 1.10 1.05 0.93 0.65 0.34
0.01 0.01 0.01 0.00 0.01 0.01 0.01 0.01 0.01 0.01 0.01 0.01 0.02 0.02 0.03 0.06 0.10 0.15 0.23 0.38 0.55 0.56 0.47 0.40 0.35 0.33 0.34 0.37 0.36 0.32 0.31 0.24 0.20 0.21 0.25 0.29 0.41 0.64 0.90 1.05 1.01 0.96 0.80 0.44
0.01 0.01 0.02 0.02 0.02 0.02 0.01 0.01 0.01 0.02 0.02 0.03 0.04 0.05 0.06 0.11 0.17 0.24 0.35 0.45 0.52 0.50 0.46 0.44 0.39 0.35 0.35 0.36 0.35 0.30 0.27 0.22 0.15 0.15 0.24 0.30 0.36 0.54 0.79 0.97 0.93 0.85 0.72 0.39
0.02 0.02 0.02 0.02 0.02 0.02 0.02 0.02 0.02 0.02 0.03 0.05 0.07 0.07 0.10 0.18 0.30 0.46 0.58 0.61 0.56 0.43 0.38 0.39 0.36 0.32 0.30 0.28 0.26 0.25 0.23 0.23 0.21 0.22 0.28 0.31 0.36 0.53 0.75 0.88 0.84 0.77 0.65 0.41
0.03 0.03 0.03 0.03 0.03 0.02 0.02 0.02 0.02 0.02 0.04 0.08 0.10 0.09 0.11 0.18 0.32 0.51 0.62 0.74 0.78 0.63 0.43 0.32 0.29 0.25 0.23 0.19 0.20 0.20 0.20 0.22 0.22 0.24 0.28 0.27 0.37 0.55 0.69 0.75 0.72 0.66 0.53 0.38
0.03 0.03 0.03 0.02 0.02 0.01 0.01 0.01 0.01 0.02 0.05 0.10 0.10 0.07 0.09 0.16 0.31 0.51 0.64 0.74 0.80 0.73 0.53 0.36 0.25 0.19 0.15 0.12 0.13 0.17 0.20 0.23 0.26 0.27 0.29 0.36 0.45 0.57 0.62 0.59 0.54 0.48 0.40 0.37
0.01 0.01 0.01 0.01 0.01 0.01 0.00 0.00 0.01 0.03 0.07 0.09 0.08 0.06 0.10 0.16 0.28 0.48 0.77 0.93 0.82 0.68 0.53 0.40 0.27 0.18 0.13 0.12 0.11 0.14 0.18 0.21 0.26 0.32 0.36 0.41 0.49 0.56 0.55 0.48 0.39 0.34 0.31 0.31
0.00 0.00 0.00 0.00 0.00 0.00 0.00 0.00 0.01 0.03 0.05 0.06 0.06 0.07 0.11 0.18 0.29 0.40 0.59 0.88 0.95 0.86 0.61 0.42 0.30 0.19 0.14 0.12 0.12 0.14 0.16 0.18 0.24 0.29 0.32 0.34 0.40 0.46 0.43 0.36 0.29 0.24 0.24 0.27
0.00 0.00 0.00 0.00 0.00 0.00 0.00 0.00 0.00 0.02 0.03 0.04 0.05 0.07 0.12 0.20 0.33 0.56 0.68 0.68 0.78 0.88 0.66 0.45 0.36 0.25 0.16 0.13 0.15 0.17 0.17 0.21 0.27 0.29 0.26 0.26 0.27 0.30 0.32 0.26 0.23 0.20 0.23 0.24
0.00 0.00 0.00 0.00 0.00 0.00 0.00 0.00 0.00 0.01 0.01 0.01 0.02 0.03 0.08 0.17 0.25 0.40 0.58 0.68 0.72 0.78 0.61 0.44 0.35 0.26 0.20 0.18 0.21 0.25 0.31 0.37 0.37 0.31 0.24 0.24 0.24 0.23 0.26 0.25 0.21 0.20 0.23 0.22
0.00 0.00 0.00 0.01 0.01 0.01 0.01 0.01 0.01 0.01 0.01 0.01 0.02 0.03 0.06 0.12 0.25 0.39 0.52 0.62 0.75 0.80 0.68 0.53 0.41 0.35 0.30 0.30 0.34 0.43 0.49 0.42 0.35 0.29 0.24 0.23 0.24 0.24 0.23 0.23 0.23 0.21 0.20 0.19
0.01 0.01 0.01 0.01 0.01 0.01 0.01 0.02 0.02 0.02 0.03 0.03 0.04 0.06 0.09 0.13 0.21 0.32 0.45 0.52 0.61 0.71 0.66 0.50 0.35 0.32 0.33 0.37 0.42 0.45 0.43 0.37 0.32 0.29 0.27 0.26 0.25 0.23 0.20 0.20 0.20 0.18 0.16 0.15
0.02 0.02 0.02 0.02 0.02 0.03 0.03 0.04 0.05 0.06 0.07 0.10 0.13 0.17 0.19 0.21 0.25 0.32 0.39 0.44 0.48 0.49 0.46 0.37 0.27 0.27 0.27 0.27 0.31 0.33 0.35 0.35 0.34 0.32 0.31 0.29 0.27 0.24 0.20 0.17 0.17 0.17 0.14 0.12